LROD Weather Reports


time (UTC)temp
F
wind
direction
speed
knots
gust
knots
rain 1hr
in
rain 24hr
in
rain mn
in
humidity
%
barometer
mb
20260503214836 50 110 2.6 0.0 0.00 0.00 0.00 58 1019.0
20260503213329 50 110 2.6 0.0 0.00 0.00 0.00 58 1019.0
20260503211830 50 100 1.7 0.0 0.00 0.00 0.00 58 1019.0
20260503210329 50 100 1.7 0.0 0.00 0.00 0.00 58 1019.0
20260503204836 52 0.9 0.0 0.00 0.00 0.00 50 1019.0
20260503203447 52 0.9 0.0 0.00 0.00 0.00 50 1019.0
20260503201829 50 240 2.6 0.0 0.00 0.00 0.00 54 1019.0
20260503200339 50 240 2.6 0.0 0.00 0.00 0.00 54 1019.0
20260503194855 52 1.7 0.0 0.00 0.00 0.00 50 1019.0
20260503193448 52 1.7 0.0 0.00 0.00 0.00 50 1019.0
20260503191829 55 0 0.0 0.0 0.00 0.00 0.00 44 1019.0
20260503190329 55 0 0.0 0.0 0.00 0.00 0.00 44 1019.0
20260503184947 59 340 2.6 0.0 0.00 0.00 0.00 36 1018.0
20260503183329 59 340 2.6 0.0 0.00 0.00 0.00 36 1018.0
20260503181829 61 310 5.2 0.0 0.00 0.00 0.00 36 1018.0
20260503180329 61 310 5.2 0.0 0.00 0.00 0.00 36 1018.0
20260503174849 64 330 6.1 0.0 0.00 0.00 0.00 30 1018.0
20260503173354 64 330 6.1 0.0 0.00 0.00 0.00 30 1018.0
20260503171829 66 340 6.1 0.0 0.00 0.00 0.00 28 1018.0
20260503170330 66 340 6.1 0.0 0.00 0.00 0.00 28 1018.0
20260503150329 70 320 4.3 0.0 0.00 0.00 0.00 23 1019.0
20260503130329 68 20 5.2 0.0 0.00 0.00 0.00 26 1020.0
20260503110350 66 360 4.3 0.0 0.00 0.00 0.00 28 1021.0
20260503090350 61 300 5.2 0.0 0.00 0.00 0.00 36 1023.0
20260503080340 59 290 4.3 0.0 0.00 0.00 0.00 39 1023.0
20260503071828 57 260 5.2 0.0 0.00 0.00 0.00 44 1023.0
20260503070330 57 260 5.2 0.0 0.00 0.00 0.00 44 1023.0
20260503060329 54 1.7 0.0 0.00 0.00 0.00 47 1023.0
20260503054829 52 0.9 0.0 0.00 0.00 0.00 54 1023.0
20260503053329 52 0.9 0.0 0.00 0.00 0.00 54 1023.0
20260503051829 48 90 4.3 0.0 0.00 0.00 0.00 62 1023.0
20260503050329 48 90 4.3 0.0 0.00 0.00 0.00 62 1023.0
20260503044829 43 150 2.6 0.0 0.00 0.00 0.00 71 1022.0
20260503043330 43 150 2.6 0.0 0.00 0.00 0.00 71 1022.0
20260503041829 43 110 2.6 0.0 0.00 0.00 0.00 71 1022.0
20260503040352 43 110 2.6 0.0 0.00 0.00 0.00 71 1022.0
20260503034831 41 110 2.6 0.0 0.00 0.00 0.00 76 1021.0
20260503033329 41 110 2.6 0.0 0.00 0.00 0.00 76 1021.0
20260503031829 43 100 4.3 0.0 0.00 0.00 0.00 71 1021.0
20260503030329 43 100 4.3 0.0 0.00 0.00 0.00 71 1021.0
20260503024844 41 100 4.3 0.0 0.00 0.00 0.00 70 1021.0
20260503023329 41 100 4.3 0.0 0.00 0.00 0.00 70 1021.0
20260503021829 43 110 5.2 0.0 0.00 0.00 0.00 71 1021.0
20260503020329 41 110 4.3 0.0 0.00 0.00 0.00 76 1021.0
20260503014829 43 80 5.2 0.0 0.00 0.00 0.00 71 1021.0
20260503013329 43 80 5.2 0.0 0.00 0.00 0.00 71 1021.0
20260503011829 45 90 6.1 0.0 0.00 0.00 0.00 66 1020.0
20260503010329 45 90 6.1 0.0 0.00 0.00 0.00 66 1020.0
20260503004829 45 140 6.1 0.0 0.00 0.00 0.00 71 1020.0
20260503003329 45 140 6.1 0.0 0.00 0.00 0.00 71 1020.0
20260503001829 46 110 5.2 0.0 0.00 0.00 0.00 66 1020.0
20260503000329 46 110 5.2 0.0 0.00 0.00 0.00 66 1020.0
20260502234829 48 100 5.2 0.0 0.00 0.00 0.00 62 1020.0
20260502233329 48 100 5.2 0.0 0.00 0.00 0.00 62 1020.0
20260502231829 48 90 5.2 0.0 0.00 0.00 0.00 62 1020.0
20260502230329 48 90 5.2 0.0 0.00 0.00 0.00 62 1020.0
20260502224829 48 90 6.1 0.0 0.00 0.00 0.00 62 1020.0
20260502223329 48 90 6.1 0.0 0.00 0.00 0.00 62 1020.0
20260502221829 50 90 5.2 0.0 0.00 0.00 0.00 58 1020.0
20260502220329 50 90 5.2 0.0 0.00 0.00 0.00 58 1020.0